Location: Franzen
(48.6167°N, 15.3833°E)
Time: 15:38:45
(UTC+00:00)

Transit 2A Rocket - Pass Details

Date: 10 August 2021
Orbit: 586 x 916 km, 66.7° (Epoch: 23 September)

Event Time Altitude Azimuth Distance (km) Brightness Sun altitude
Rises 21:13:51 0° 308° (NW) 3,365 9.5 -21.6°
Reaches altitude 10° 21:17:43 10° 281° (WNW) 2,493 8.1 -21.9°
Maximum altitude 21:20:07 13° 257° (WSW) 2,331 7.6 -22.1°
Drops below altitude 10° 21:22:35 10° 232° (SW) 2,552 7.6 -22.2°
Enters shadow 21:23:44 - 223° (SW) 2,768 7.7 -22.3°
